This is the latest recevied weather packets stored in our database for station/object DB0FN-10. If no packets are shown the sender has not sent any weather packets the latest 10 day(s).
| Time | Temp. | Humidity | Pressure | Rain* | Wind** | Luminosity | Snow |
|---|---|---|---|---|---|---|---|
| 1777759276 | 23.33° C | 30% | 1021 hPa | - | - | - | - |
| 1777758376 | 23.89° C | 29% | 1021.1 hPa | - | - | - | - |
| 1777757476 | 23.89° C | 28% | 1021 hPa | - | - | - | - |
| 1777756576 | 23.33° C | 29% | 1021 hPa | - | - | - | - |
| 1777755676 | 23.89° C | 28% | 1021.1 hPa | - | - | - | - |
| 1777754776 | 23.33° C | 29% | 1021.2 hPa | - | - | - | - |
| 1777753876 | 23.89° C | 30% | 1021.4 hPa | - | - | - | - |
| 1777752976 | 23.33° C | 29% | 1021.4 hPa | - | - | - | - |
| 1777752076 | 22.78° C | 28% | 1021.5 hPa | - | - | - | - |
| 1777751176 | 23.89° C | 27% | 1021.5 hPa | - | - | - | - |
| 1777750275 | 23.33° C | 27% | 1021.5 hPa | - | - | - | - |
| 1777749375 | 23.89° C | 27% | 1021.4 hPa | - | - | - | - |
| 1777748475 | 23.33° C | 27% | 1021.4 hPa | - | - | - | - |
| 1777747575 | 23.89° C | 27% | 1021.3 hPa | - | - | - | - |
| 1777746675 | 24.44° C | 25% | 1021.3 hPa | - | - | - | - |
| 1777745775 | 25° C | 24% | 1021.2 hPa | - | - | - | - |
| 1777744875 | 25° C | 25% | 1021.2 hPa | - | - | - | - |
| 1777743975 | 25° C | 25% | 1021.2 hPa | - | - | - | - |
| 1777743075 | 25° C | 24% | 1021.3 hPa | - | - | - | - |
| 1777742175 | 25.56° C | 27% | 1021.4 hPa | - | - | - | - |
| 1777741275 | 25° C | 25% | 1021.5 hPa | - | - | - | - |
| 1777740375 | 25.56° C | 25% | 1021.6 hPa | - | - | - | - |
| 1777739475 | 25.56° C | 26% | 1021.6 hPa | - | - | - | - |
| 1777738575 | 25.56° C | 25% | 1021.8 hPa | - | - | - | - |
| 1777737674 | 25.56° C | 25% | 1022 hPa | - | - | - | - |
* Rain since midnight (hover to see other rain measurements)
** Current wind speed in m/s (hover to see current wind gust speed)